TimeEST,TemperatureF,Dew PointF,Humidity,Sea Level PressureIn,VisibilityMPH,Wind Direction,Wind SpeedMPH,Gust SpeedMPH,PrecipitationIn,Events,Conditions,WindDirDegrees,DateUTC
12:52 AM,48.9,42.1,77,30.21,10.0,ENE,8.1,-,N/A,,Partly Cloudy,60,2012-11-22 05:52:00
1:52 AM,48.9,43.0,80,30.22,10.0,NE,6.9,-,N/A,,Overcast,50,2012-11-22 06:52:00
2:52 AM,48.9,42.1,77,30.22,10.0,NE,9.2,-,N/A,,Overcast,50,2012-11-22 07:52:00
3:13 AM,48.2,41.0,76,30.21,10.0,ENE,9.2,-,N/A,,Overcast,60,2012-11-22 08:13:00
3:52 AM,48.9,39.9,71,30.22,10.0,NE,8.1,-,N/A,,Overcast,50,2012-11-22 08:52:00
4:00 AM,48.2,39.2,71,30.21,10.0,NE,5.8,-,N/A,,Mostly Cloudy,50,2012-11-22 09:00:00
4:52 AM,48.0,39.9,74,30.23,10.0,NE,5.8,-,N/A,,Clear,50,2012-11-22 09:52:00
5:39 AM,48.2,39.2,71,30.22,10.0,NNE,4.6,-,N/A,,Mostly Cloudy,30,2012-11-22 10:39:00
5:52 AM,48.0,37.9,68,30.23,10.0,NE,8.1,-,N/A,,Mostly Cloudy,40,2012-11-22 10:52:00
6:16 AM,48.2,37.4,66,30.22,10.0,NE,6.9,-,N/A,,Scattered Clouds,40,2012-11-22 11:16:00
6:52 AM,48.0,39.0,71,30.24,10.0,NE,6.9,-,N/A,,Scattered Clouds,40,2012-11-22 11:52:00
7:52 AM,48.9,39.9,71,30.25,10.0,NE,8.1,-,N/A,,Scattered Clouds,40,2012-11-22 12:52:00
8:52 AM,51.1,39.9,66,30.26,10.0,NE,10.4,-,N/A,,Clear,40,2012-11-22 13:52:00
9:52 AM,51.1,39.9,66,30.26,10.0,NE,10.4,-,N/A,,Clear,40,2012-11-22 14:52:00
10:13 AM,50.0,41.0,71,30.25,10.0,NE,10.4,-,N/A,,Mostly Cloudy,40,2012-11-22 15:13:00
10:52 AM,51.1,41.0,68,30.25,10.0,NE,6.9,-,N/A,,Overcast,50,2012-11-22 15:52:00
11:23 AM,51.8,41.0,67,30.23,10.0,NE,8.1,17.3,N/A,,Scattered Clouds,50,2012-11-22 16:23:00
11:52 AM,52.0,41.0,66,30.22,10.0,NE,9.2,-,N/A,,Clear,50,2012-11-22 16:52:00
12:52 PM,52.0,42.1,69,30.21,10.0,NE,9.2,-,N/A,,Partly Cloudy,50,2012-11-22 17:52:00
1:04 PM,51.8,41.0,67,30.21,10.0,NE,6.9,-,N/A,,Mostly Cloudy,40,2012-11-22 18:04:00
1:52 PM,51.1,42.1,71,30.20,10.0,Variable,4.6,-,N/A,,Overcast,0,2012-11-22 18:52:00
2:52 PM,51.1,42.1,71,30.20,10.0,ENE,8.1,-,N/A,,Overcast,70,2012-11-22 19:52:00
3:52 PM,50.0,41.0,71,30.21,10.0,NE,5.8,-,N/A,,Overcast,50,2012-11-22 20:52:00
4:52 PM,50.0,42.1,74,30.21,10.0,NE,4.6,-,N/A,,Overcast,50,2012-11-22 21:52:00
5:52 PM,50.0,41.0,71,30.21,10.0,ENE,3.5,-,N/A,,Overcast,70,2012-11-22 22:52:00
6:31 PM,48.2,41.0,76,30.20,10.0,ENE,4.6,-,N/A,,Scattered Clouds,60,2012-11-22 23:31:00
6:52 PM,46.0,39.9,79,30.20,10.0,Calm,Calm,-,N/A,,Partly Cloudy,0,2012-11-22 23:52:00
7:52 PM,44.1,39.9,85,30.20,10.0,NE,3.5,-,N/A,,Partly Cloudy,40,2012-11-23 00:52:00
8:52 PM,39.9,37.0,89,30.19,10.0,Calm,Calm,-,N/A,,Clear,0,2012-11-23 01:52:00
9:52 PM,37.9,36.0,93,30.17,10.0,Calm,Calm,-,N/A,,Clear,0,2012-11-23 02:52:00
10:52 PM,37.0,35.1,93,30.16,8.0,Calm,Calm,-,N/A,,Clear,0,2012-11-23 03:52:00
11:52 PM,36.0,34.0,93,30.14,8.0,Calm,Calm,-,N/A,,Clear,0,2012-11-23 04:52:00